Location: Moscow
(55.7500°N, 37.5830°E)
Time: 14:08:53
(UTC+03:00)

S-56A Canister/Altair - Pass Details

Date: 05 December 2021
Orbit: 633 x 2499 km, 38.9° (Epoch: 17 January)

Event Time Altitude Azimuth Distance (km) Brightness Sun altitude
Rises 03:48:11 0° 253° (WSW) 4,165 - -39.4°
Reaches altitude 10° 03:53:03 10° 229° (SW) 2,786 - -38.8°
Maximum altitude 03:55:52 13° 202° (SSW) 2,343 - -38.4°
Drops below altitude 10° 03:58:22 10° 175° (S) 2,385 - -38.1°
Sets 04:01:52 0° 147° (SSE) 3,099 - -37.6°
